Volver al catálogo

COSMOS 1341 DEB

LostHEO
NORAD 33529·DEBRIS·🇷🇺 Russia

Lanzado Mar 3, 1982 desde Plesetsk Cosmodrome

Loading…

Próximos Pases (próximas 24 horas)

TLE

ObsoletoSource: Space-Track

Época: Jun 12, 2008, 19:30 UTC

1 33529U 82016E   08164.81280541  .00000542  00000-0  10000-3 0  9992
2 33529  66.6214  64.4864 6121221 139.6715 286.9841  2.05212156 44075

Sigue COSMOS 1341 DEB en tiempo real con AllMySat

Download on the App Store